Temperature
6 6 5 5 5 4 4 3 3 3 3 3 3 4 4 4 4 4 4 4 4 4 4 3 3 3 4 4 4 4 4 4 4 5 5 5 5 5
6 5 5 5 4 4 3 3 3 2 2 3 3 3 3 3 3 3 3 3 3 3 3 3 3 3 3 3 3 3 4 4 4 4 4 5 5 5
5 5 4 4 4 3 3 3 2 2 2 2 2 2 2 2 2 2 2 2 2 2 2 2 2 2 3 3 3 3 3 3 3 3 3 4 4 4
5 4 4 4 3 3 3 2 2 2 1 1 2 2 2 1 1 1 1 1 2 2 2 2 2 2 2 2 2 2 2 2 3 3 3 3 4 4
4 4 3 3 3 2 2 2 2 1 1 1 1 1 1 1 1 1 1 1 1 1 1 1 1 1 1 2 2 2 2 2 2 2 2 3 3 3
3 3 3 2 2 2 2 1 1 1 1 0 0 0 0 -0 -0 -0 0 0 1 1 1 1 1 1 1 1 1 1 1 1 2 2 2 2 2 2
3 2 2 2 1 1 1 1 1 0 -0 -1 -1 -1 -1 -1 -1 -1 -1 -1 -0 -0 -0 0 0 1 1 1 1 1 1 1 1 1 1 1 1 1
2 2 2 1 1 1 1 0 0 -0 -1 -1 -1 -2 -1 -2 -2 -2 -2 -2 -2 -1 -1 -1 -0 -0 0 0 0 1 1 0 1 1 1 1 1 1
1 1 1 1 0 0 -0 -0 -0 -1 -1 -2 -2 -2 -2 -2 -2 -2 -2 -2 -2 -2 -2 -1 -1 -1 -0 -0 -0 -0 -0 -0 0 0 0 0 0 1
0 0 -0 -0 -0 -0 -1 -1 -1 -1 -1 -2 -2 -2 -2 -2 -3 -3 -3 -3 -2 -2 -2 -2 -2 -2 -1 -1 -1 -1 -1 -1 -0 -0 -0 0 0 0
-0 -0 -1 -1 -1 -1 -1 -1 -1 -1 -1 -2 -2 -2 -2 -2 -3 -3 -3 -3 -3 -2 -2 -3 -3 -3 -2 -1 -1 -1 -1 -1 -1 -1 -0 -0 -0 -0
-1 -1 -1 -1 -1 -1 -1 -1 -1 -2 -2 -2 -2 -2 -2 -2 -3 -3 -3 -4 -4 -4 -3 -4 -3 -4 -3 -2 -2 -1 -1 -1 -1 -1 -1 -1 -0 -0
-1 -1 -2 -2 -2 -2 -2 -2 -2 -2 -2 -2 -2 -2 -3 -3 -3 -3 -3 -4 -4 -4 -4 -4 -4 -4 -4 -4 -3 -2 -2 -2 -1 -1 -1 -1 -1 -1
-2 -2 -2 -2 -2 -2 -2 -3 -3 -3 -3 -3 -3 -3 -3 -3 -3 -3 -3 -4 -4 -4 -4 -4 -4 -4 -4 -4 -4 -3 -2 -2 -2 -2 -2 -1 -1 -1
-2 -2 -3 -3 -3 -3 -3 -3 -3 -3 -3 -3 -3 -3 -4 -4 -4 -4 -4 -4 -4 -4 -4 -4 -4 -4 -4 -4 -4 -3 -3 -3 -3 -3 -2 -2 -2 -2
-3 -3 -3 -3 -3 -3 -3 -3 -3 -3 -4 -4 -4 -4 -4 -4 -4 -4 -4 -4 -4 -4 -4 -4 -4 -4 -4 -4 -4 -4 -3 -4 -3 -3 -3 -2 -2 -2
-3 -3 -4 -4 -3 -3 -3 -4 -4 -4 -4 -4 -4 -4 -4 -4 -4 -4 -5 -5 -5 -5 -4 -4 -4 -4 -4 -4 -4 -4 -4 -4 -4 -4 -4 -3 -3 -3
-4 -4 -4 -4 -4 -4 -4 -4 -4 -5 -5 -5 -5 -5 -5 -5 -5 -5 -5 -5 -5 -5 -5 -5 -5 -4 -4 -4 -4 -4 -4 -4 -4 -4 -4 -4 -3 -3
-4 -4 -5 -5 -5 -5 -5 -5 -5 -5 -5 -5 -5 -6 -6 -6 -6 -6 -6 -6 -6 -6 -5 -5 -5 -5 -5 -6 -5 -5 -5 -5 -4 -4 -4 -4 -4 -3
-5 -5 -5 -5 -5 -5 -6 -6 -6 -6 -6 -6 -6 -6 -6 -6 -6 -6 -6 -6 -6 -6 -6 -6 -5 -6 -6 -6 -6 -5 -5 -5 -5 -5 -4 -4 -4 -4
-5 -5 -6 -6 -6 -6 -6 -6 -6 -6 -6 -6 -6 -6 -6 -6 -6 -6 -6 -6 -6 -6 -6 -6 -6 -6 -6 -6 -6 -6 -5 -5 -5 -5 -5 -5 -5 -4
-6 -6 -6 -6 -6 -6 -6 -6 -6 -6 -6 -6 -6 -6 -6 -6 -7 -6 -7 -7 -7 -7 -7 -7 -6 -6 -6 -6 -6 -6 -5 -5 -5 -5 -5 -5 -5 -5
-6 -6 -6 -6 -6 -6 -6 -6 -7 -7 -7 -7 -7 -7 -7 -7 -7 -7 -7 -7 -7 -7 -7 -7 -6 -6 -6 -6 -6 -6 -6 -6 -5 -5 -5 -4 -5 -4
Wind_Speed
2 3 3 3 3 3 4 4 6 8 9 6 4 4 6 8 11 10 10 15 18 19 19 19 19 20 20 21 21 21 21 20 20 21 21 22 22 22
2 3 4 3 3 3 4 4 5 7 9 6 6 6 8 10 14 11 11 17 17 19 20 20 20 20 20 21 21 21 20 20 19 20 21 21 22 21
3 4 4 4 4 4 4 4 5 6 10 9 6 6 7 8 10 10 12 11 13 18 20 20 20 19 20 21 21 21 20 19 19 20 21 21 21 21
4 4 5 4 5 4 4 5 5 6 8 11 9 7 8 8 8 9 10 11 11 16 19 20 19 19 20 20 20 19 19 18 19 20 20 21 21 21
3 4 5 4 6 5 5 6 5 6 6 9 10 8 7 7 9 9 10 8 11 15 17 17 18 19 19 19 18 18 17 17 18 18 18 19 20 20
4 4 5 5 6 6 6 6 6 6 7 8 9 8 8 7 7 8 9 7 9 11 12 14 17 18 18 18 18 17 16 16 17 17 17 17 17 18
4 4 5 7 9 8 7 6 6 6 6 7 9 8 8 7 7 7 9 9 9 7 7 9 10 9 11 14 15 16 16 16 16 16 17 17 16 16
5 6 6 7 9 11 12 12 11 9 8 8 8 9 10 9 8 9 9 9 9 4 7 10 7 8 8 8 13 16 16 16 15 14 15 15 14 15
5 6 6 7 8 7 10 12 12 13 13 10 10 11 11 10 9 11 10 10 11 8 8 10 8 9 8 11 15 15 14 14 13 14 14 14 14 14
5 6 6 7 8 8 8 8 8 8 10 9 9 10 10 10 9 11 11 9 9 7 6 9 8 8 9 9 14 14 13 13 13 14 14 14 14 13
5 6 7 7 11 13 9 9 9 8 10 13 14 14 16 16 13 8 7 7 9 7 4 5 7 8 8 7 9 11 12 14 14 14 14 14 13 12
5 6 9 10 13 13 8 8 9 9 8 9 10 12 11 12 13 8 6 7 8 6 3 4 6 6 6 4 4 7 9 12 13 14 14 14 12 7
5 5 6 12 14 14 12 8 11 11 7 7 7 7 7 6 6 6 6 6 7 7 5 5 6 6 6 7 7 6 6 6 8 9 11 12 10 7
6 6 7 13 14 14 11 11 14 12 6 5 6 6 6 6 6 6 7 7 8 9 9 7 6 7 8 9 8 6 6 6 5 6 6 8 8 8
6 10 12 14 13 10 11 13 10 6 5 5 6 6 6 6 5 5 6 6 7 8 9 7 6 7 7 8 7 7 7 6 4 4 5 5 5 4
6 9 12 12 10 10 9 8 5 5 5 5 6 5 5 5 5 5 5 6 6 6 5 7 6 6 7 7 7 7 6 5 5 5 5 5 4 3
7 5 5 5 5 5 5 5 4 4 5 5 5 5 5 5 5 5 5 5 6 6 6 5 5 5 5 5 5 6 5 5 5 5 5 5 5 4
6 4 5 5 5 5 5 5 5 5 4 4 4 5 5 6 6 5 5 5 6 6 6 5 5 5 4 3 3 4 4 5 5 5 4 4 5 5
4 4 4 5 5 5 5 5 5 5 4 4 4 5 5 5 6 6 5 5 6 6 6 5 5 4 6 6 4 4 4 5 5 5 5 4 5 5
3 4 5 5 5 5 5 5 5 5 5 4 4 4 5 5 5 5 5 5 6 6 6 5 4 4 5 5 5 6 7 5 4 4 5 4 3 5
4 4 4 5 5 5 5 5 5 5 5 5 4 5 4 4 5 5 5 7 6 5 6 6 6 8 4 3 3 4 5 7 6 4 4 4 4 4
5 5 5 5 5 4 5 5 4 5 5 4 4 4 4 4 5 5 5 5 5 4 5 5 5 5 3 3 4 5 5 6 7 8 7 5 3 2
5 5 4 4 4 4 4 4 5 5 5 4 4 4 4 4 4 4 5 5 4 4 4 4 4 4 3 2 3 4 5 6 5 5 6 8 7 5
Wind_Direction
262 265 270 272 271 271 271 268 271 285 286 280 292 301 315 310 301 302 301 298 297 297 296 295 293 292 291 290 289 287 285 285 285 281 279 277 276 277
266 266 269 271 271 269 268 270 266 270 280 284 290 300 308 309 305 306 301 299 297 296 295 295 293 292 292 291 289 287 284 282 282 283 281 278 277 276
278 276 276 274 274 273 272 271 270 269 276 285 287 297 298 299 304 305 301 296 296 294 294 294 293 293 294 292 289 285 283 282 282 281 282 278 276 276
279 284 286 290 287 284 280 276 272 268 273 285 291 295 294 299 298 298 302 300 297 296 295 294 293 295 295 292 289 288 285 284 282 280 279 278 277 277
293 288 287 289 289 286 283 279 278 283 279 282 288 292 293 299 301 297 293 292 297 297 293 293 294 295 294 294 294 291 288 286 284 283 282 280 277 276
294 288 284 280 280 283 284 280 282 285 284 285 288 293 293 295 298 299 300 296 295 299 295 298 297 296 295 296 294 292 290 287 286 284 283 281 280 278
298 294 290 287 287 288 287 284 282 280 286 288 289 293 295 302 302 300 298 302 296 287 294 297 298 295 295 294 294 293 292 289 287 286 284 282 279 277
298 298 296 293 295 296 295 292 286 280 279 278 282 285 289 291 295 299 298 299 297 291 302 299 296 292 292 293 295 296 294 291 288 289 289 286 283 281
295 295 297 298 302 295 295 294 289 285 278 274 274 277 283 287 291 293 287 287 286 291 300 294 294 292 296 300 300 298 297 296 295 296 294 291 288 285
293 293 293 295 295 295 291 289 280 279 279 277 270 274 278 280 276 281 282 284 284 281 284 286 293 296 300 298 298 296 297 300 301 299 296 293 291 285
297 297 297 292 298 304 301 294 290 287 290 290 290 289 290 291 292 292 288 293 297 295 280 280 296 305 299 290 294 301 303 302 299 299 297 295 292 287
300 298 299 299 301 305 302 298 294 291 293 296 294 293 291 291 293 285 278 282 292 293 279 292 301 314 306 289 294 306 306 304 302 301 300 298 295 287
302 302 300 305 306 307 307 295 293 299 292 288 291 292 291 289 286 282 272 269 279 281 285 300 298 300 289 297 304 302 299 301 306 306 303 299 296 289
300 300 302 309 310 309 308 303 305 309 298 293 294 294 296 296 292 289 286 279 271 274 281 284 286 290 293 295 298 303 304 303 305 304 300 302 301 296
301 304 307 310 312 310 307 308 311 306 299 295 293 292 291 289 292 296 296 293 291 285 285 282 282 287 285 286 292 298 306 308 306 307 309 307 300 295
302 305 310 310 310 306 306 308 305 295 301 294 294 294 297 297 299 300 304 309 307 306 301 291 283 284 286 286 287 295 300 298 311 314 313 315 318 314
310 308 308 310 314 317 318 312 308 309 309 304 302 306 308 308 307 307 305 311 306 308 314 318 309 299 288 289 291 296 302 306 308 314 320 324 323 324
318 311 307 307 307 311 313 313 312 311 308 306 304 303 307 309 309 312 312 312 311 310 310 313 323 324 318 307 299 293 304 308 318 325 325 325 324 326
319 307 303 303 304 306 308 309 311 310 307 304 304 305 307 307 309 313 316 318 317 315 314 317 321 322 324 321 321 332 319 318 324 331 333 326 317 319
312 300 299 300 302 304 306 307 308 313 312 307 303 303 305 308 312 313 314 315 317 319 323 326 324 318 308 302 304 317 326 319 320 323 326 326 323 321
309 303 301 300 300 302 303 302 303 307 309 306 302 304 308 311 310 311 313 316 318 320 322 322 314 315 308 307 318 326 331 337 332 319 319 328 334 342
304 302 302 301 302 300 300 302 307 308 310 309 307 306 306 305 305 308 309 310 312 315 314 317 321 327 336 337 332 330 334 342 347 345 342 335 323 324
306 303 302 302 300 298 298 299 300 303 304 305 308 309 307 307 305 304 304 304 307 313 321 327 334 339 340 339 338 337 339 343 350 360 1 3 10 2
Height
1479 1478 1477 1476 1475 1474 1473 1471 1469 1463 1458 1457 1457 1456 1454 1452 1450 1448 1445 1443 1440 1437 1435 1433 1430 1428 1426 1425 1423 1422 1420 1419 1418 1417 1416 1415 1416 1416
1474 1473 1472 1471 1470 1469 1467 1466 1464 1461 1455 1452 1451 1450 1448 1446 1444 1441 1438 1436 1433 1430 1428 1425 1423 1420 1418 1417 1415 1413 1412 1411 1410 1409 1408 1407 1407 1407
1469 1468 1467 1466 1464 1463 1462 1460 1459 1456 1451 1446 1446 1443 1441 1439 1436 1434 1431 1428 1425 1423 1420 1417 1415 1413 1410 1408 1406 1405 1403 1402 1401 1400 1399 1399 1398 1398
1464 1463 1462 1461 1459 1457 1456 1454 1452 1450 1447 1441 1438 1436 1434 1432 1429 1427 1424 1421 1418 1415 1413 1410 1407 1405 1403 1401 1398 1396 1395 1394 1393 1392 1391 1391 1390 1389
1459 1458 1457 1455 1453 1451 1450 1448 1446 1444 1441 1437 1432 1430 1428 1426 1423 1420 1417 1414 1411 1408 1405 1403 1400 1398 1395 1393 1391 1389 1387 1386 1384 1383 1383 1382 1381 1381
1454 1453 1451 1449 1447 1445 1443 1441 1439 1437 1435 1432 1427 1424 1422 1419 1417 1413 1409 1406 1404 1401 1398 1396 1393 1391 1388 1386 1383 1381 1379 1378 1376 1375 1375 1374 1373 1372
1449 1447 1445 1444 1442 1440 1438 1435 1433 1431 1428 1426 1422 1419 1416 1413 1411 1408 1404 1400 1397 1395 1391 1388 1386 1383 1380 1378 1376 1373 1372 1370 1369 1368 1367 1366 1365 1365
1443 1441 1440 1438 1436 1434 1432 1430 1428 1426 1423 1420 1417 1414 1411 1409 1406 1403 1399 1395 1390 1389 1385 1381 1380 1376 1373 1371 1369 1367 1365 1363 1362 1361 1359 1358 1357 1356
1438 1436 1434 1432 1430 1428 1425 1424 1422 1420 1418 1416 1412 1409 1406 1404 1401 1397 1394 1391 1386 1383 1380 1375 1373 1370 1368 1365 1363 1361 1358 1356 1355 1354 1352 1351 1350 1349
1433 1431 1429 1426 1424 1422 1420 1417 1415 1413 1411 1409 1407 1404 1401 1398 1396 1393 1389 1385 1381 1379 1377 1371 1367 1364 1361 1359 1357 1355 1353 1351 1349 1347 1346 1345 1343 1342
1428 1426 1424 1421 1419 1417 1415 1412 1409 1407 1405 1403 1401 1398 1396 1393 1391 1388 1384 1380 1375 1372 1371 1368 1362 1358 1354 1352 1351 1349 1347 1345 1343 1341 1339 1338 1336 1336
1423 1421 1419 1417 1414 1412 1410 1406 1403 1401 1399 1396 1394 1392 1389 1387 1385 1383 1379 1376 1371 1367 1365 1364 1359 1356 1350 1346 1346 1344 1341 1339 1337 1335 1333 1332 1331 1330
1418 1416 1413 1411 1409 1407 1404 1401 1398 1396 1393 1390 1387 1385 1383 1381 1378 1376 1374 1372 1368 1364 1362 1360 1356 1353 1350 1344 1340 1339 1337 1334 1332 1329 1328 1326 1325 1325
1414 1411 1409 1406 1404 1401 1399 1396 1393 1391 1388 1385 1382 1379 1377 1375 1373 1371 1369 1366 1364 1361 1358 1356 1353 1350 1346 1341 1337 1334 1332 1330 1327 1325 1323 1321 1320 1319
1410 1407 1404 1402 1399 1396 1394 1391 1389 1386 1383 1380 1377 1375 1373 1370 1368 1365 1363 1360 1358 1356 1354 1351 1349 1346 1343 1339 1334 1331 1328 1325 1323 1321 1319 1317 1316 1315
1405 1402 1400 1397 1394 1392 1389 1387 1384 1382 1379 1376 1373 1371 1369 1366 1364 1361 1358 1355 1352 1350 1349 1347 1344 1341 1338 1335 1332 1328 1325 1323 1320 1318 1316 1313 1312 1311
1400 1398 1395 1392 1390 1387 1385 1383 1381 1378 1375 1373 1370 1368 1365 1363 1360 1358 1355 1352 1349 1346 1343 1342 1340 1338 1335 1333 1329 1326 1323 1320 1318 1315 1313 1310 1308 1307
1397 1394 1391 1389 1386 1384 1381 1379 1377 1374 1372 1369 1367 1365 1362 1359 1357 1355 1352 1350 1347 1344 1341 1339 1336 1333 1331 1328 1328 1324 1321 1318 1316 1313 1311 1308 1305 1304
1393 1390 1388 1386 1383 1381 1378 1376 1373 1371 1369 1367 1364 1362 1359 1357 1354 1352 1349 1347 1344 1342 1339 1337 1334 1331 1328 1325 1324 1323 1320 1317 1314 1311 1309 1307 1304 1302
1389 1387 1385 1382 1380 1378 1375 1373 1370 1368 1366 1364 1361 1359 1357 1355 1352 1349 1347 1345 1342 1339 1337 1335 1333 1331 1328 1326 1323 1320 1319 1316 1313 1310 1307 1305 1303 1302
1386 1384 1381 1379 1377 1374 1372 1370 1368 1365 1363 1361 1359 1357 1354 1352 1350 1347 1345 1343 1340 1338 1335 1333 1331 1330 1327 1325 1322 1319 1317 1316 1313 1310 1307 1304 1302 1300
1383 1381 1378 1376 1374 1371 1369 1367 1365 1363 1360 1358 1356 1354 1352 1350 1347 1345 1343 1341 1339 1337 1334 1332 1330 1328 1326 1323 1321 1319 1316 1314 1312 1310 1308 1306 1304 1301
1380 1378 1375 1373 1371 1369 1366 1364 1362 1360 1358 1356 1354 1351 1350 1348 1345 1343 1341 1339 1337 1335 1333 1331 1329 1327 1325 1323 1321 1319 1316 1314 1311 1309 1308 1307 1305 1303